Regional Weather Roundup
Issued by NWS Little Rock, AR

Home | Current Version | Previous Version | Graphics & Text | Print | Product List | Glossary On
Versions: 1 2 3 4 5 6 7 8 9 10 11 12 13 14 15 16 17 18 19 20 21 22 23 24 25 26 27 28 29 30 31 32 33 34 35 36 37 38 39 40 41 42 43 44 45 46 47 48 49
000
ASUS44 KLZK 071905
RWRLZK

WEATHER ROUNDUP FOR ARKANSAS
NATIONAL WEATHER SERVICE LITTLE ROCK AR
100 PM CST SUN FEB 07 2016

NOTE: "FAIR" INDICATES FEW OR NO CLOUDS BELOW 12,000 FEET WITH NO
SIGNIFICANT WEATHER AND/OR OBSTRUCTIONS TO VISIBILITY.

ARZ001-003-010-029-072000-
NORTHWEST ARKANSAS

CITY           SKY/WX    TMP DP  RH WIND       PRES   REMARKS
FAYETTEVILLE   MOSUNNY   51  32  48 W9        30.08F
FORT SMITH     MOSUNNY   58  30  34 W13       30.11F
HARRISON       MOSUNNY   53  25  33 SW15G25   30.03F
BENTONVILLE    CLOUDY    52  28  40 W15G21    30.09F
ROGERS         CLOUDY    51  29  42 W20       30.07F
SILOAM SPGS    MOSUNNY   50  27  40 W16       30.10F
HIGHFILL       MOSUNNY   51  29  42 W16G25    30.08F
SPRINGDALE     MOSUNNY   50  30  46 SW12G25   30.09F
$$

ARZ004-005-016-072000-
NORTH CENTRAL ARKANSAS

CITY           SKY/WX    TMP DP  RH WIND       PRES   REMARKS
BATESVILLE     CLOUDY    57  25  28 SW15      30.06F
FLIPPIN        PTSUNNY  N/A N/A N/A W20G26    30.01F
MTN HOME       MOSUNNY   54  23  30 W8        30.01F
$$

ARZ040-041-072000-
WEST CENTRAL ARKANSAS

CITY           SKY/WX    TMP DP  RH WIND       PRES   REMARKS
MENA           MOSUNNY   55  32  41 W14       30.13F
MOUNT IDA      MOSUNNY   57  28  33 VRB6      30.09F
$$

ARZ009-017-025-026-028-072000-
NORTHEAST ARKANSAS

CITY           SKY/WX    TMP DP  RH WIND       PRES   REMARKS
CORNING        FAIR      55  32  41 SW18      30.01F
JONESBORO      SUNNY     55  33  43 SW21G26   30.04F
NEWPORT        SUNNY     59  29  32 SW18      30.06F
WALNUT RIDGE   MOSUNNY   57  28  33 SW18      30.02F
BLYTHEVILLE    SUNNY     60  33  36 SW16G28   30.07F
$$

ARZ022-023-033-042-044-072000-
CENTRAL ARKANSAS

CITY           SKY/WX    TMP DP  RH WIND       PRES   REMARKS
LITTLE ROCK    CLOUDY    59  28  30 SW15G21   30.11F
N LITTLE ROCK  PTSUNNY   57  28  33 SW9G22    30.11F
JACKSONVILLE   MOSUNNY   59  26  27 SW14      30.09F
SEARCY         MOSUNNY   59  27  29 SW13G18   30.09F
HOT SPRINGS    SUNNY     57  26  30 SW10      30.12F
RUSSELLVILLE   CLOUDY    54  30  40 NW7       30.09F
CLINTON        FAIR      55  27  33 SW10G17   30.07F
$$

ARZ036-072000-
EAST ARKANSAS

CITY           SKY/WX    TMP DP  RH WIND       PRES   REMARKS
WEST MEMPHIS   SUNNY     56  31  38 SW14G23   30.09F
$$

ARZ050-053-066-070-073-072000-
SOUTHWEST ARKANSAS

CITY           SKY/WX    TMP DP  RH WIND       PRES   REMARKS
ARKADELPHIA    FAIR      58  33  38 W10       30.15F
CAMDEN         SUNNY     63  25  23 SW13      30.16F
TEXARKANA      SUNNY     58  27  30 W13G24    30.16F
EL DORADO      SUNNY     60  26  27 S14       30.16F
DE QUEEN       SUNNY     57  34  41 W12       30.14F
$$

ARZ056-057-069-072000-
SOUTHEAST ARKANSAS

CITY           SKY/WX    TMP DP  RH WIND       PRES   REMARKS
PINE BLUFF     SUNNY     59  30  33 SW15G22   30.12F
STUTTGART      SUNNY     57  32  38 SW18      30.12F
MONTICELLO     SUNNY     61  30  31 SW10G17   30.15F

$$





USA.gov is the U.S. government's official web portal to all federal, state and local government web resources and services.